Location: Newark
(31.8769°N, 91.1411°W)
Time: 01:13:42
(UTC+00:00)

N. Korean satellite - Pass Details

Date: 28 January 2020
Orbit: 456 x 505 km, 97.2° (Epoch: 27 February)

Event Time Altitude Azimuth Distance (km) Brightness Sun altitude
Rises 12:20:19 0° 357° (N) 2,555 10.0 -8.9°
Reaches altitude 10° 12:22:33 10° 346° (NNW) 1,679 9.0 -8.5°
Maximum altitude 12:25:40 28° 286° (WNW) 958 7.5 -7.8°
Drops below altitude 10° 12:28:48 10° 226° (SW) 1,691 9.0 -7.2°
Sets 12:31:05 0° 215° (SW) 2,577 10.1 -6.7°
